OneWeb SL0611

operational
NORAD ID: 54674 Int'l Des: 2022-166 Owner: ONEWEBN Country: UK Constellation: oneweb
LEOCIRCULARPOLARONEWEB_TYPE

About OneWeb SL0611

Description loading...

Live Position

Loading 3D Globe...

Upcoming Passes

Altitude History

Altitude vs Time

uPlot chart will show altitude changes over time

Two-Line Element Set

1 54674U 22166AJ 26049.64169832 -.00000001 00000-0 -33687-4 0 9997
2 54674 87.9176 267.6269 0001604 93.9432 266.1885 13.21826657155788
Epoch: Feb 18, 2026 • Age: 15 hours

Current Status

Altitude 1179.6 km
Velocity 7.26 km/s
Sub-Earth Point 12.82°N, 163.87°W
Launch Date Dec 8, 2022
Age 3.2 years
Type internet

Technical Details

Classification Payload
Mass 148.00 kg
Dry Mass 140.00 kg
Total Mass 148.00 kg
Length 1.30 m
Diameter 1.00 m
Span 5.00 m
Shape Trapezoid+2 pan
Manufacturer ONEWUS
Bus Type ARROW
Phase Status In Orbit
Owner/State ONEWEBN/UK

Large Constellations

Loading constellations...